| time (UTC) | temp F | wind direction | speed MPH | gust MPH | rain 1hr in | rain 24hr in | rain mn in | humidity % | barometer mb |
| 20260901075938 | 45 | 287 | 0.0 | 0.0 | 0.00 | 0.00 | 0.00 | 74 | 1010.9 |
| 20260901075440 | 46 | 287 | 0.0 | 0.0 | 0.00 | 0.00 | 0.00 | 73 | 1010.9 |
| 20260901073942 | 46 | 287 | 0.0 | 0.0 | 0.00 | 0.00 | 0.00 | 70 | 1011.1 |
| 20260901072442 | 47 | 287 | 0.0 | 0.0 | 0.00 | 0.00 | 0.00 | 70 | 1010.9 |
| 20260901071957 | 47 | 287 | 0.0 | 0.0 | 0.00 | 0.00 | 0.00 | 70 | 1011.1 |
| 20260901071444 | 47 | 287 | 0.0 | 0.0 | 0.00 | 0.00 | 0.00 | 70 | 1011.2 |
| 20260901071005 | 47 | 287 | 0.0 | 0.0 | 0.00 | 0.00 | 0.00 | 70 | 1011.2 |
| 20260901065446 | 47 | 287 | 0.0 | 0.0 | 0.00 | 0.00 | 0.00 | 68 | 1011.4 |
| 20260901064947 | 47 | 287 | 0.0 | 0.0 | 0.00 | 0.00 | 0.00 | 69 | 1011.4 |
| 20260901064445 | 47 | 287 | 0.0 | 0.0 | 0.00 | 0.00 | 0.00 | 68 | 1011.4 |
| 20260901063946 | 47 | 287 | 0.0 | 0.0 | 0.00 | 0.00 | 0.00 | 68 | 1011.4 |
| 20260901063447 | 48 | 287 | 0.0 | 0.0 | 0.00 | 0.00 | 0.00 | 67 | 1011.4 |
| 20260901061947 | 48 | 287 | 0.0 | 0.0 | 0.00 | 0.00 | 0.00 | 67 | 1011.7 |
| 20260901061449 | 48 | 287 | 0.0 | 0.0 | 0.00 | 0.00 | 0.00 | 67 | 1011.7 |
| 20260901060450 | 48 | 287 | 0.0 | 0.0 | 0.00 | 0.00 | 0.00 | 66 | 1011.8 |
| 20260901055951 | 48 | 287 | 0.0 | 0.0 | 0.00 | 0.00 | 0.00 | 65 | 1011.8 |
| 20260901054951 | 49 | 287 | 0.0 | 0.0 | 0.00 | 0.00 | 0.00 | 62 | 1011.9 |
| 20260901054451 | 50 | 287 | 0.0 | 0.0 | 0.00 | 0.00 | 0.00 | 61 | 1011.9 |
| 20260901053952 | 50 | 287 | 0.0 | 0.0 | 0.00 | 0.00 | 0.00 | 61 | 1011.9 |
| 20260901053520 | 50 | 287 | 0.0 | 0.0 | 0.00 | 0.00 | 0.00 | 61 | 1012.0 |
| 20260901052453 | 50 | 287 | 0.0 | 0.0 | 0.00 | 0.00 | 0.00 | 61 | 1012.0 |
| 20260901051954 | 51 | 287 | 0.0 | 0.0 | 0.00 | 0.00 | 0.00 | 60 | 1012.1 |
| 20260901051455 | 51 | 287 | 0.0 | 0.0 | 0.00 | 0.00 | 0.00 | 60 | 1012.0 |
| 20260901050956 | 51 | 287 | 0.0 | 0.0 | 0.00 | 0.00 | 0.00 | 59 | 1012.0 |
| 20260901050454 | 51 | 287 | 0.0 | 0.0 | 0.00 | 0.00 | 0.00 | 59 | 1012.0 |
| 20260901045955 | 51 | 287 | 0.0 | 0.0 | 0.00 | 0.00 | 0.00 | 58 | 1012.0 |
| 20260901045456 | 51 | 287 | 0.0 | 0.0 | 0.00 | 0.00 | 0.00 | 58 | 1012.0 |
| 20260901043956 | 51 | 287 | 0.0 | 1.0 | 0.00 | 0.00 | 0.00 | 55 | 1012.0 |
| 20260901042958 | 52 | 298 | 1.0 | 1.0 | 0.00 | 0.00 | 0.00 | 54 | 1011.9 |
| 20260901042459 | 52 | 305 | 0.0 | 0.0 | 0.00 | 0.00 | 0.00 | 54 | 1011.9 |
| 20260901041000 | 53 | 305 | 0.0 | 0.0 | 0.00 | 0.00 | 0.00 | 51 | 1011.9 |
| 20260901040501 | 53 | 305 | 0.0 | 0.0 | 0.00 | 0.00 | 0.00 | 51 | 1011.9 |
| 20260901040002 | 53 | 305 | 0.0 | 0.0 | 0.00 | 0.00 | 0.00 | 50 | 1012.0 |
| 20260901035503 | 54 | 305 | 0.0 | 0.0 | 0.00 | 0.00 | 0.00 | 49 | 1012.0 |
| 20260901035001 | 54 | 305 | 0.0 | 0.0 | 0.00 | 0.00 | 0.00 | 49 | 1012.0 |
| 20260901034502 | 54 | 305 | 0.0 | 0.0 | 0.00 | 0.00 | 0.00 | 48 | 1012.0 |
| 20260901033504 | 55 | 305 | 0.0 | 0.0 | 0.00 | 0.00 | 0.00 | 47 | 1011.9 |
| 20260901033005 | 56 | 305 | 0.0 | 0.0 | 0.00 | 0.00 | 0.00 | 47 | 1011.9 |
| 20260901032503 | 56 | 305 | 0.0 | 0.0 | 0.00 | 0.00 | 0.00 | 47 | 1011.8 |
| 20260901031506 | 57 | 316 | 0.0 | 0.0 | 0.00 | 0.00 | 0.00 | 46 | 1011.8 |
| 20260901031007 | 57 | 308 | 0.0 | 2.0 | 0.00 | 0.00 | 0.00 | 46 | 1011.8 |
| 20260901030508 | 57 | 278 | 1.0 | 0.0 | 0.00 | 0.00 | 0.00 | 45 | 1011.9 |
| 20260901025507 | 58 | 257 | 0.0 | 0.0 | 0.00 | 0.00 | 0.00 | 44 | 1011.8 |
| 20260901025008 | 58 | 291 | 1.0 | 0.0 | 0.00 | 0.00 | 0.00 | 44 | 1011.8 |
| 20260901024509 | 59 | 304 | 0.0 | 1.0 | 0.00 | 0.00 | 0.00 | 44 | 1011.9 |
| 20260901024101 | 59 | 298 | 1.0 | 0.0 | 0.00 | 0.00 | 0.00 | 44 | 1011.9 |
| 20260901024011 | 59 | 298 | 1.0 | 0.0 | 0.00 | 0.00 | 0.00 | 44 | 1011.9 |
| 20260901023009 | 60 | 304 | 2.0 | 2.0 | 0.00 | 0.00 | 0.00 | 43 | 1011.8 |
| 20260901022510 | 60 | 322 | 1.0 | 1.0 | 0.00 | 0.00 | 0.00 | 42 | 1011.7 |
| 20260901022011 | 61 | 301 | 3.0 | 3.0 | 0.00 | 0.00 | 0.00 | 41 | 1011.8 |
| 20260901021512 | 61 | 314 | 0.0 | 3.0 | 0.00 | 0.00 | 0.00 | 41 | 1011.8 |
| 20260901021011 | 61 | 323 | 1.0 | 8.0 | 0.00 | 0.00 | 0.00 | 40 | 1011.8 |
| 20260901020512 | 62 | 308 | 1.0 | 3.0 | 0.00 | 0.00 | 0.00 | 40 | 1011.8 |
| 20260901015514 | 62 | 321 | 5.0 | 3.0 | 0.00 | 0.00 | 0.00 | 39 | 1011.9 |
| 20260901015015 | 63 | 307 | 1.0 | 4.0 | 0.00 | 0.00 | 0.00 | 38 | 1011.8 |
| 20260901014014 | 63 | 308 | 3.0 | 4.0 | 0.00 | 0.00 | 0.00 | 38 | 1011.9 |
| 20260901013516 | 63 | 315 | 2.0 | 3.0 | 0.00 | 0.00 | 0.00 | 40 | 1011.8 |
| 20260901013017 | 63 | 301 | 4.0 | 6.0 | 0.00 | 0.00 | 0.00 | 39 | 1011.8 |
| 20260901012518 | 62 | 294 | 3.0 | 0.0 | 0.00 | 0.00 | 0.00 | 38 | 1011.8 |
| 20260901012016 | 63 | 284 | 3.0 | 2.0 | 0.00 | 0.00 | 0.00 | 38 | 1011.8 |
| 20260901011517 | 63 | 305 | 2.0 | 0.0 | 0.00 | 0.00 | 0.00 | 38 | 1011.8 |
| 20260901011018 | 63 | 338 | 2.0 | 5.0 | 0.00 | 0.00 | 0.00 | 38 | 1011.9 |
| 20260901010020 | 63 | 305 | 5.0 | 2.0 | 0.00 | 0.00 | 0.00 | 36 | 1011.9 |
| 20260901005519 | 64 | 315 | 3.0 | 2.0 | 0.00 | 0.00 | 0.00 | 36 | 1011.9 |
| 20260901005020 | 64 | 325 | 4.0 | 2.0 | 0.00 | 0.00 | 0.00 | 36 | 1011.9 |
| 20260901004522 | 65 | 295 | 4.0 | 2.0 | 0.00 | 0.00 | 0.00 | 35 | 1012.0 |
| 20260901003523 | 66 | 315 | 3.0 | 4.0 | 0.00 | 0.00 | 0.00 | 33 | 1011.9 |
| 20260901003021 | 67 | 326 | 3.0 | 2.0 | 0.00 | 0.00 | 0.00 | 33 | 1011.9 |
| 20260901002522 | 67 | 298 | 2.0 | 4.0 | 0.00 | 0.00 | 0.00 | 32 | 1011.9 |
| 20260901002023 | 67 | 293 | 3.0 | 0.0 | 0.00 | 0.00 | 0.00 | 31 | 1011.9 |
| 20260901001026 | 68 | 300 | 6.0 | 5.0 | 0.00 | 0.00 | 0.00 | 29 | 1011.8 |
| 20260901000524 | 69 | 228 | 4.0 | 1.0 | 0.00 | 0.00 | 0.00 | 28 | 1011.8 |
| 20260901000025 | 69 | 300 | 5.0 | 5.0 | 0.00 | 0.00 | 0.00 | 28 | 1011.8 |
| 20260831235526 | 70 | 316 | 6.0 | 5.0 | 0.00 | 0.00 | 0.00 | 27 | 1011.7 |
| 20260831234027 | 70 | 297 | 6.0 | 3.0 | 0.00 | 0.00 | 0.00 | 26 | 1011.7 |
| 20260831233528 | 70 | 309 | 3.0 | 7.0 | 0.00 | 0.00 | 0.00 | 27 | 1011.5 |
| 20260831233029 | 70 | 305 | 7.0 | 2.0 | 0.00 | 0.00 | 0.00 | 26 | 1011.5 |
| 20260831232531 | 71 | 309 | 2.0 | 1.0 | 0.00 | 0.00 | 0.00 | 25 | 1011.4 |
| 20260831232032 | 71 | 269 | 4.0 | 3.0 | 0.00 | 0.00 | 0.00 | 25 | 1011.5 |
| 20260831231529 | 71 | 311 | 4.0 | 5.0 | 0.00 | 0.00 | 0.00 | 25 | 1011.5 |
| 20260831231031 | 70 | 309 | 7.0 | 5.0 | 0.00 | 0.00 | 0.00 | 25 | 1011.4 |
| 20260831225534 | 71 | 48 | 0.0 | 0.0 | 0.00 | 0.00 | 0.00 | 20 | 1011.5 |
| 20260831225032 | 71 | 89 | 3.0 | 2.0 | 0.00 | 0.00 | 0.00 | 19 | 1011.4 |
| 20260831224534 | 72 | 66 | 3.0 | 4.0 | 0.00 | 0.00 | 0.00 | 19 | 1011.5 |
| 20260831224035 | 72 | 180 | 2.0 | 3.0 | 0.00 | 0.00 | 0.00 | 20 | 1011.5 |
| 20260831223536 | 71 | 308 | 1.0 | 0.0 | 0.00 | 0.00 | 0.00 | 19 | 1011.4 |
| 20260831223037 | 71 | 38 | 2.0 | 1.0 | 0.00 | 0.00 | 0.00 | 20 | 1011.5 |
| 20260831222535 | 71 | 121 | 2.0 | 1.0 | 0.00 | 0.00 | 0.00 | 21 | 1011.7 |
| 20260831221537 | 70 | 191 | 4.0 | 4.0 | 0.00 | 0.00 | 0.00 | 21 | 1011.8 |
| 20260831221039 | 70 | 83 | 3.0 | 6.0 | 0.00 | 0.00 | 0.00 | 22 | 1011.8 |
| 20260831220540 | 69 | 336 | 3.0 | 7.0 | 0.00 | 0.00 | 0.00 | 21 | 1011.9 |
| 20260831215540 | 70 | 145 | 3.0 | 3.0 | 0.00 | 0.00 | 0.00 | 21 | 1012.0 |
| 20260831214541 | 70 | 115 | 4.0 | 6.0 | 0.00 | 0.00 | 0.00 | 22 | 1012.1 |
| 20260831214042 | 69 | 298 | 3.0 | 1.0 | 0.00 | 0.00 | 0.00 | 24 | 1012.1 |
| 20260831213543 | 69 | 153 | 2.0 | 1.0 | 0.00 | 0.00 | 0.00 | 23 | 1012.1 |
| 20260831213042 | 68 | 359 | 1.0 | 6.0 | 0.00 | 0.00 | 0.00 | 24 | 1012.2 |
| 20260831212543 | 68 | 194 | 1.0 | 5.0 | 0.00 | 0.00 | 0.00 | 25 | 1012.2 |
| 20260831210046 | 68 | 107 | 2.0 | 3.0 | 0.00 | 0.00 | 0.00 | 26 | 1012.5 |
| 20260831205547 | 68 | 190 | 2.0 | 1.0 | 0.00 | 0.00 | 0.00 | 26 | 1012.5 |
| 20260831205048 | 67 | 172 | 3.0 | 1.0 | 0.00 | 0.00 | 0.00 | 27 | 1012.6 |
| 20260831204603 | 67 | 105 | 3.0 | 3.0 | 0.00 | 0.00 | 0.00 | 26 | 1012.5 |
| 20260831204047 | 67 | 195 | 4.0 | 5.0 | 0.00 | 0.00 | 0.00 | 27 | 1012.6 |
| 20260831203050 | 67 | 198 | 6.0 | 5.0 | 0.00 | 0.00 | 0.00 | 27 | 1012.5 |
| 20260831201051 | 66 | 215 | 5.0 | 1.0 | 0.00 | 0.00 | 0.00 | 28 | 1012.7 |
| 20260831195053 | 66 | 298 | 2.0 | 1.0 | 0.00 | 0.00 | 0.00 | 30 | 1012.8 |
| 20260831192056 | 64 | 160 | 6.0 | 5.0 | 0.00 | 0.00 | 0.00 | 30 | 1013.0 |
| 20260831191058 | 64 | 176 | 4.0 | 4.0 | 0.00 | 0.00 | 0.00 | 30 | 1013.1 |
| 20260831190557 | 64 | 129 | 2.0 | 4.0 | 0.00 | 0.00 | 0.00 | 31 | 1013.3 |
| 20260831185100 | 63 | 110 | 5.0 | 8.0 | 0.00 | 0.00 | 0.00 | 30 | 1013.3 |
| 20260831184601 | 63 | 125 | 5.0 | 5.0 | 0.00 | 0.00 | 0.00 | 30 | 1013.5 |
| 20260831184059 | 63 | 113 | 4.0 | 2.0 | 0.00 | 0.00 | 0.00 | 31 | 1013.3 |
| 20260831183600 | 63 | 23 | 3.0 | 3.0 | 0.00 | 0.00 | 0.00 | 31 | 1013.3 |
| 20260831183101 | 63 | 205 | 2.0 | 6.0 | 0.00 | 0.00 | 0.00 | 33 | 1013.3 |
| 20260831182629 | 63 | 205 | 3.0 | 4.0 | 0.00 | 0.00 | 0.00 | 32 | 1013.2 |
| 20260831182103 | 62 | 90 | 2.0 | 1.0 | 0.00 | 0.00 | 0.00 | 33 | 1013.3 |
| 20260831181602 | 62 | 37 | 3.0 | 2.0 | 0.00 | 0.00 | 0.00 | 33 | 1013.3 |
| 20260831181103 | 61 | 155 | 2.0 | 3.0 | 0.00 | 0.00 | 0.00 | 33 | 1013.3 |
| 20260831180604 | 61 | 354 | 4.0 | 1.0 | 0.00 | 0.00 | 0.00 | 34 | 1013.4 |
| 20260831180105 | 61 | 165 | 4.0 | 4.0 | 0.00 | 0.00 | 0.00 | 34 | 1013.3 |
| 20260831175606 | 61 | 73 | 5.0 | 1.0 | 0.00 | 0.00 | 0.00 | 34 | 1013.4 |
| 20260831175104 | 61 | 134 | 3.0 | 4.0 | 0.00 | 0.00 | 0.00 | 34 | 1013.3 |
| 20260831174605 | 60 | 319 | 3.0 | 2.0 | 0.00 | 0.00 | 0.00 | 36 | 1013.5 |
| 20260831173607 | 60 | 14 | 3.0 | 2.0 | 0.00 | 0.00 | 0.00 | 36 | 1013.4 |
| 20260831173108 | 59 | 307 | 4.0 | 2.0 | 0.00 | 0.00 | 0.00 | 37 | 1013.3 |
| 20260831172607 | 59 | 221 | 3.0 | 2.0 | 0.00 | 0.00 | 0.00 | 37 | 1013.5 |
| 20260831172108 | 59 | 271 | 5.0 | 2.0 | 0.00 | 0.00 | 0.00 | 37 | 1013.2 |
| 20260831171609 | 58 | 89 | 1.0 | 5.0 | 0.00 | 0.00 | 0.00 | 40 | 1013.4 |
| 20260831171110 | 58 | 120 | 6.0 | 3.0 | 0.00 | 0.00 | 0.00 | 40 | 1013.2 |
| 20260831170611 | 58 | 211 | 4.0 | 5.0 | 0.00 | 0.00 | 0.00 | 40 | 1013.1 |
| 20260831170109 | 58 | 232 | 4.0 | 4.0 | 0.00 | 0.00 | 0.00 | 40 | 1013.1 |
| 20260831165610 | 58 | 214 | 2.0 | 6.0 | 0.00 | 0.00 | 0.00 | 40 | 1013.2 |
| 20260831165111 | 58 | 167 | 1.0 | 5.0 | 0.00 | 0.00 | 0.00 | 41 | 1013.1 |
| 20260831164612 | 58 | 129 | 1.0 | 1.0 | 0.00 | 0.00 | 0.00 | 41 | 1013.2 |
| 20260831164113 | 58 | 115 | 4.0 | 5.0 | 0.00 | 0.00 | 0.00 | 41 | 1013.1 |
| 20260831163611 | 57 | 224 | 3.0 | 3.0 | 0.00 | 0.00 | 0.00 | 43 | 1013.1 |
| 20260831163112 | 57 | 162 | 1.0 | 4.0 | 0.00 | 0.00 | 0.00 | 43 | 1013.0 |
| 20260831162613 | 56 | 235 | 2.0 | 1.0 | 0.00 | 0.00 | 0.00 | 44 | 1013.1 |
| 20260831162114 | 56 | 149 | 3.0 | 2.0 | 0.00 | 0.00 | 0.00 | 43 | 1013.1 |
| 20260831161615 | 56 | 115 | 5.0 | 5.0 | 0.00 | 0.00 | 0.00 | 44 | 1013.3 |
| 20260831161113 | 56 | 89 | 4.0 | 4.0 | 0.00 | 0.00 | 0.00 | 43 | 1013.2 |
| 20260831160614 | 55 | 97 | 4.0 | 2.0 | 0.00 | 0.00 | 0.00 | 43 | 1013.2 |
| 20260831160115 | 55 | 172 | 2.0 | 3.0 | 0.00 | 0.00 | 0.00 | 45 | 1013.2 |
| 20260831155616 | 55 | 181 | 3.0 | 3.0 | 0.00 | 0.00 | 0.00 | 45 | 1013.3 |
| 20260831155117 | 55 | 195 | 2.0 | 2.0 | 0.00 | 0.00 | 0.00 | 46 | 1013.1 |
| 20260831154615 | 55 | 139 | 3.0 | 5.0 | 0.00 | 0.00 | 0.00 | 45 | 1013.1 |
| 20260831154116 | 54 | 93 | 4.0 | 3.0 | 0.00 | 0.00 | 0.00 | 46 | 1013.0 |
| 20260831153617 | 54 | 170 | 1.0 | 1.0 | 0.00 | 0.00 | 0.00 | 49 | 1013.2 |
| 20260831153118 | 53 | 179 | 2.0 | 3.0 | 0.00 | 0.00 | 0.00 | 49 | 1013.1 |
| 20260831152618 | 53 | 148 | 2.0 | 1.0 | 0.00 | 0.00 | 0.00 | 50 | 1013.2 |
| 20260831152116 | 52 | 207 | 2.0 | 4.0 | 0.00 | 0.00 | 0.00 | 52 | 1013.0 |
| 20260831151617 | 52 | 256 | 2.0 | 1.0 | 0.00 | 0.00 | 0.00 | 53 | 1013.1 |
| 20260831151118 | 51 | 177 | 0.0 | 1.0 | 0.00 | 0.00 | 0.00 | 55 | 1013.1 |
| 20260831150619 | 50 | 155 | 2.0 | 0.0 | 0.00 | 0.00 | 0.00 | 56 | 1013.1 |
| 20260831150120 | 50 | 163 | 2.0 | 0.0 | 0.00 | 0.00 | 0.00 | 57 | 1013.0 |
| 20260831145618 | 49 | 155 | 1.0 | 0.0 | 0.00 | 0.00 | 0.00 | 58 | 1013.1 |
| 20260831145119 | 48 | 125 | 2.0 | 2.0 | 0.00 | 0.00 | 0.00 | 59 | 1013.0 |
| 20260831144620 | 48 | 194 | 1.0 | 3.0 | 0.00 | 0.00 | 0.00 | 60 | 1013.0 |
| 20260831144121 | 47 | 201 | 2.0 | 0.0 | 0.00 | 0.00 | 0.00 | 62 | 1012.8 |
| 20260831143621 | 46 | 190 | 2.0 | 2.0 | 0.00 | 0.00 | 0.00 | 63 | 1013.1 |
| 20260831143119 | 45 | 232 | 1.0 | 1.0 | 0.00 | 0.00 | 0.00 | 64 | 1012.8 |
| 20260831142620 | 45 | 219 | 2.0 | 2.0 | 0.00 | 0.00 | 0.00 | 65 | 1012.8 |
| 20260831142121 | 45 | 239 | 2.0 | 3.0 | 0.00 | 0.00 | 0.00 | 65 | 1012.7 |
| 20260831141622 | 44 | 212 | 3.0 | 1.0 | 0.00 | 0.00 | 0.00 | 65 | 1012.7 |
| 20260831141123 | 44 | 158 | 1.0 | 0.0 | 0.00 | 0.00 | 0.00 | 65 | 1012.6 |
| 20260831140621 | 44 | 205 | 2.0 | 1.0 | 0.00 | 0.00 | 0.00 | 65 | 1012.7 |
| 20260831140121 | 44 | 129 | 1.0 | 0.0 | 0.00 | 0.00 | 0.00 | 65 | 1012.6 |
| 20260831135622 | 44 | 219 | 1.0 | 2.0 | 0.00 | 0.00 | 0.00 | 65 | 1012.8 |
| 20260831135123 | 44 | 217 | 3.0 | 1.0 | 0.00 | 0.00 | 0.00 | 65 | 1012.7 |
| 20260831134624 | 44 | 205 | 0.0 | 0.0 | 0.00 | 0.00 | 0.00 | 65 | 1012.8 |
| 20260831134122 | 44 | 170 | 1.0 | 0.0 | 0.00 | 0.00 | 0.00 | 65 | 1012.7 |
| 20260831133622 | 44 | 205 | 1.0 | 1.0 | 0.00 | 0.00 | 0.00 | 66 | 1013.1 |
| 20260831133123 | 44 | 205 | 0.0 | 3.0 | 0.00 | 0.00 | 0.00 | 66 | 1012.7 |
| 20260831132624 | 43 | 148 | 1.0 | 0.0 | 0.00 | 0.00 | 0.00 | 67 | 1012.7 |
| 20260831132125 | 43 | 222 | 3.0 | 2.0 | 0.00 | 0.00 | 0.00 | 67 | 1012.8 |
| 20260831131623 | 43 | 211 | 2.0 | 2.0 | 0.00 | 0.00 | 0.00 | 68 | 1012.8 |
| 20260831131123 | 43 | 224 | 2.0 | 2.0 | 0.00 | 0.00 | 0.00 | 68 | 1013.0 |
| 20260831130624 | 42 | 150 | 0.0 | 0.0 | 0.00 | 0.00 | 0.00 | 69 | 1013.0 |
| 20260831130125 | 42 | 238 | 2.0 | 2.0 | 0.00 | 0.00 | 0.00 | 69 | 1013.0 |
| 20260831125626 | 42 | 207 | 2.0 | 1.0 | 0.00 | 0.00 | 0.00 | 69 | 1013.2 |
| 20260831125124 | 42 | 204 | 1.0 | 1.0 | 0.00 | 0.00 | 0.00 | 69 | 1013.1 |
| 20260831124625 | 43 | 226 | 1.0 | 3.0 | 0.00 | 0.00 | 0.00 | 68 | 1013.3 |
| 20260831124126 | 43 | 229 | 2.0 | 3.0 | 0.00 | 0.00 | 0.00 | 67 | 1013.2 |
| 20260831123626 | 43 | 211 | 2.0 | 2.0 | 0.00 | 0.00 | 0.00 | 67 | 1013.3 |
| 20260831123127 | 43 | 214 | 2.0 | 2.0 | 0.00 | 0.00 | 0.00 | 67 | 1013.3 |
| 20260831122625 | 43 | 225 | 3.0 | 4.0 | 0.00 | 0.00 | 0.00 | 67 | 1013.4 |
| 20260831122126 | 43 | 221 | 2.0 | 1.0 | 0.00 | 0.00 | 0.00 | 68 | 1013.4 |
| 20260831121627 | 43 | 187 | 2.0 | 1.0 | 0.00 | 0.00 | 0.00 | 68 | 1013.7 |
| 20260831121128 | 43 | 232 | 2.0 | 2.0 | 0.00 | 0.00 | 0.00 | 68 | 1013.4 |
| 20260831120629 | 43 | 212 | 1.0 | 2.0 | 0.00 | 0.00 | 0.00 | 68 | 1013.4 |
| 20260831120127 | 43 | 232 | 1.0 | 2.0 | 0.00 | 0.00 | 0.00 | 68 | 1013.4 |
| 20260831115628 | 43 | 211 | 1.0 | 1.0 | 0.00 | 0.00 | 0.00 | 68 | 1013.7 |
| 20260831115129 | 43 | 217 | 0.0 | 0.0 | 0.00 | 0.00 | 0.00 | 68 | 1013.4 |
| 20260831114630 | 43 | 186 | 0.0 | 2.0 | 0.00 | 0.00 | 0.00 | 69 | 1013.8 |
| 20260831114130 | 43 | 198 | 0.0 | 1.0 | 0.00 | 0.00 | 0.00 | 68 | 1013.5 |
| 20260831113628 | 43 | 205 | 0.0 | 0.0 | 0.00 | 0.00 | 0.00 | 68 | 1013.7 |
| 20260831113129 | 43 | 222 | 0.0 | 0.0 | 0.00 | 0.00 | 0.00 | 67 | 1013.5 |
| 20260831112630 | 43 | 242 | 2.0 | 3.0 | 0.00 | 0.00 | 0.00 | 67 | 1013.7 |
| 20260831112131 | 43 | 165 | 2.0 | 2.0 | 0.00 | 0.00 | 0.00 | 68 | 1013.5 |
| 20260831111632 | 42 | 215 | 1.0 | 1.0 | 0.00 | 0.00 | 0.00 | 69 | 1013.7 |
| 20260831111130 | 42 | 166 | 1.0 | 0.0 | 0.00 | 0.00 | 0.00 | 69 | 1013.7 |
| 20260831110631 | 42 | 236 | 2.0 | 4.0 | 0.00 | 0.00 | 0.00 | 69 | 1013.9 |
| 20260831110132 | 42 | 210 | 2.0 | 1.0 | 0.00 | 0.00 | 0.00 | 69 | 1013.8 |
| 20260831105633 | 42 | 176 | 0.0 | 0.0 | 0.00 | 0.00 | 0.00 | 69 | 1013.9 |
| 20260831105134 | 43 | 203 | 0.0 | 1.0 | 0.00 | 0.00 | 0.00 | 68 | 1013.8 |
| 20260831104632 | 43 | 153 | 0.0 | 0.0 | 0.00 | 0.00 | 0.00 | 68 | 1014.1 |
| 20260831104133 | 43 | 211 | 1.0 | 1.0 | 0.00 | 0.00 | 0.00 | 68 | 1013.8 |
| 20260831103634 | 43 | 173 | 1.0 | 1.0 | 0.00 | 0.00 | 0.00 | 68 | 1014.1 |
| 20260831103135 | 43 | 186 | 1.0 | 0.0 | 0.00 | 0.00 | 0.00 | 68 | 1013.9 |
| 20260831102636 | 43 | 163 | 1.0 | 0.0 | 0.00 | 0.00 | 0.00 | 68 | 1013.9 |
| 20260831102134 | 44 | 225 | 2.0 | 2.0 | 0.00 | 0.00 | 0.00 | 67 | 1013.9 |
| 20260831101635 | 44 | 194 | 0.0 | 2.0 | 0.00 | 0.00 | 0.00 | 67 | 1014.0 |
| 20260831100637 | 44 | 177 | 0.0 | 0.0 | 0.00 | 0.00 | 0.00 | 67 | 1014.4 |
| 20260831095636 | 44 | 165 | 1.0 | 0.0 | 0.00 | 0.00 | 0.00 | 67 | 1014.4 |
| 20260831095137 | 44 | 221 | 2.0 | 2.0 | 0.00 | 0.00 | 0.00 | 66 | 1014.1 |
| 20260831094638 | 44 | 163 | 2.0 | 0.0 | 0.00 | 0.00 | 0.00 | 66 | 1014.5 |
| 20260831094139 | 44 | 219 | 1.0 | 2.0 | 0.00 | 0.00 | 0.00 | 66 | 1014.3 |
| 20260831093640 | 44 | 187 | 2.0 | 2.0 | 0.00 | 0.00 | 0.00 | 67 | 1014.4 |
| 20260831093138 | 44 | 195 | 1.0 | 1.0 | 0.00 | 0.00 | 0.00 | 67 | 1014.5 |
| 20260831092639 | 44 | 211 | 2.0 | 2.0 | 0.00 | 0.00 | 0.00 | 67 | 1014.6 |
| 20260831092140 | 44 | 235 | 2.0 | 1.0 | 0.00 | 0.00 | 0.00 | 66 | 1014.5 |
| 20260831091641 | 44 | 233 | 3.0 | 1.0 | 0.00 | 0.00 | 0.00 | 66 | 1014.7 |
| 20260831091142 | 44 | 170 | 1.0 | 0.0 | 0.00 | 0.00 | 0.00 | 66 | 1014.6 |
| 20260831090640 | 44 | 225 | 0.0 | 0.0 | 0.00 | 0.00 | 0.00 | 66 | 1014.8 |
| 20260831090141 | 44 | 217 | 0.0 | 0.0 | 0.00 | 0.00 | 0.00 | 66 | 1014.7 |
| 20260831085643 | 44 | 217 | 0.0 | 0.0 | 0.00 | 0.00 | 0.00 | 65 | 1015.0 |
| 20260831085144 | 44 | 217 | 0.0 | 0.0 | 0.00 | 0.00 | 0.00 | 65 | 1014.8 |
| 20260831084644 | 44 | 221 | 0.0 | 0.0 | 0.00 | 0.00 | 0.00 | 65 | 1015.0 |
| 20260831084142 | 44 | 221 | 0.0 | 0.0 | 0.00 | 0.00 | 0.00 | 65 | 1015.1 |
| 20260831083643 | 44 | 221 | 0.0 | 0.0 | 0.00 | 0.00 | 0.00 | 65 | 1014.8 |
| 20260831083144 | 44 | 221 | 0.0 | 0.0 | 0.00 | 0.00 | 0.00 | 65 | 1014.8 |
| 20260831082146 | 44 | 221 | 0.0 | 0.0 | 0.00 | 0.00 | 0.00 | 65 | 1015.0 |
| 20260831081644 | 44 | 221 | 0.0 | 0.0 | 0.00 | 0.00 | 0.00 | 65 | 1015.0 |
| 20260831081146 | 44 | 221 | 0.0 | 0.0 | 0.00 | 0.00 | 0.00 | 65 | 1015.1 |
| 20260831080646 | 44 | 221 | 0.0 | 0.0 | 0.00 | 0.00 | 0.00 | 65 | 1015.2 |